Weather observations for the past three days for
Estherville, Estherville Municipal Airport
| Date | Time (cdt) | Wind (kph) | Vis. (km) | Weather | Sky Cond. | Temperature (ºC) | Relative Humidity | Wind Chill (°C) | Heat Index (°C) | Pressure | Precipitation (cm) | ||||||
|---|---|---|---|---|---|---|---|---|---|---|---|---|---|---|---|---|---|
| Air | Dwpt | 6 hour | altimeter (cm) | sea level (mb) | 1 hr | 3 hr | 6 hr | ||||||||||
| Max. | Min. | ||||||||||||||||
| 09 | 19:49 | N 30 G 43 | 16.09 | Fair | CLR | 13.9 | -7.2 | 23% | 76.02 | 1013.6 | |||||||
| 09 | 18:49 | N 28 G 52 | 16.09 | Fair | CLR | 15 | -7.2 | 18.3 | 15 | 21% | 75.97 | 1012.9 | |||||
| 09 | 17:49 | NW 37 G 50 | 16.09 | Fair and Breezy | CLR | 16.7 | -6.1 | 21% | 75.92 | 1012.0 | |||||||
| 09 | 16:49 | N 35 G 57 | 16.09 | Fair and Breezy | CLR | 17.2 | -4.4 | 23% | 75.87 | 1011.6 | |||||||
| 09 | 15:49 | N 41 G 57 | 16.09 | Fair and Breezy | CLR | 17.2 | -3.9 | 24% | 75.84 | 1011.2 | |||||||
| 09 | 14:49 | NW 35 G 59 | 16.09 | Fair and Breezy | CLR | 17.2 | -3.3 | 25% | 75.79 | 1010.6 | |||||||
| 09 | 13:49 | N 33 G 52 | 16.09 | Fair and Breezy | CLR | 17.2 | -2.2 | 27% | 75.77 | 1010.3 | |||||||
| 09 | 12:49 | N 24 G 52 | 16.09 | Fair | CLR | 16.1 | 0 | 16.1 | 10.6 | 34% | 75.74 | 1010.1 | |||||
| 09 | 11:49 | N 33 G 48 | 16.09 | Fair and Breezy | CLR | 15.6 | 1.1 | 38% | 75.72 | 1009.6 | |||||||
| 09 | 10:49 | N 31 G 48 | 16.09 | Fair | CLR | 14.4 | 3.3 | 48% | 75.67 | 1008.9 | |||||||
| 09 | 09:49 | N 31 | 16.09 | Overcast | FEW030 OVC080 | 12.8 | 5.6 | 62% | 75.64 | 1008.2 | |||||||
| 09 | 08:49 | NW 30 | 16.09 | Mostly Cloudy | BKN070 BKN110 | 13.3 | 4.4 | 55% | 75.59 | 1007.4 | |||||||
| 09 | 07:49 | W 11 | 16.09 | Overcast | BKN100 OVC120 | 11.7 | 1.7 | 51% | 75.51 | 1006.6 | |||||||
| 09 | 06:49 | N 17 | 16.09 | Fair | CLR | 11.1 | 1.1 | 12.8 | 6.1 | 50% | 75.51 | 1006.2 | |||||
| 09 | 05:49 | NW 26 | 16.09 | Fair | CLR | 11.7 | -1.7 | 40% | 75.41 | 1005.1 | |||||||
| 09 | 04:49 | SW 17 | 16.09 | NULL | NULL | 8.3 | -2.2 | 48% | 6 | 75.29 | 1003.2 | ||||||
| 09 | 03:49 | SW 15 | 16.09 | Fair | CLR | 8.9 | -2.2 | 46% | 7 | 75.29 | 1003.6 | ||||||
| 09 | 02:49 | SW 9 | 16.09 | Fair | CLR | 6.7 | -1.7 | 55% | 5 | 75.31 | 1003.8 | ||||||
| 09 | 01:49 | SW 15 | 16.09 | Fair | CLR | 6.1 | -3.3 | 51% | 3 | 75.39 | 1004.9 | ||||||
| 09 | 00:49 | W 13 | 16.09 | Fair | CLR | 6.7 | -3.9 | 23.3 | 6.7 | 47% | 4 | 75.41 | 1005.3 | ||||
| 08 | 23:49 | W 13 | 16.09 | Fair | CLR | 8.3 | -3.9 | 42% | 6 | 75.41 | 1005.3 | ||||||
| 08 | 22:49 | NW 15 | 16.09 | Fair | CLR | 11.1 | -3.9 | 35% | 75.44 | 1005.4 | |||||||
| 08 | 21:49 | NW 17 | 16.09 | Fair | CLR | 14.4 | -3.3 | 29% | 75.39 | 1004.8 | |||||||
| 08 | 20:49 | N 24 | 16.09 | A Few Clouds | FEW100 | 18.3 | -1.7 | 26% | 75.34 | 1003.9 | |||||||
| 08 | 19:49 | NW 19 | 16.09 | Mostly Cloudy | BKN110 | 21.1 | -2.2 | 21% | 75.26 | 1003.2 | |||||||
| 08 | 18:49 | NW 31 G 48 | 16.09 | Fair | CLR | 23.3 | -1.7 | 25 | 21.7 | 19% | 75.23 | 1003.0 | |||||
| 08 | 17:49 | W 31 | 16.09 | A Few Clouds | FEW120 | 25 | -3.3 | 15% | 25 | 75.23 | 1002.8 | ||||||
| 08 | 16:49 | W 20 G 41 | 16.09 | Mostly Cloudy | BKN110 | 23.9 | -2.8 | 17% | 24 | 75.26 | 1003.1 | ||||||
| 08 | 15:49 | W 31 G 39 | 16.09 | Partly Cloudy | SCT110 | 23.9 | -3.3 | 16% | 24 | 75.31 | 1003.8 | ||||||
| 08 | 14:49 | W 26 G 41 | 16.09 | Mostly Cloudy | BKN110 | 23.9 | -3.3 | 16% | 24 | 75.36 | 1004.6 | ||||||
| 08 | 13:49 | W 28 G 41 | 16.09 | Fair | CLR | 22.8 | -3.9 | 17% | 75.44 | 1005.5 | |||||||
| 08 | 12:49 | W 24 G 43 | 16.09 | Fair | CLR | 21.7 | -5.6 | 22.2 | 4.4 | 16% | 75.49 | 1006.4 | |||||
| 08 | 11:49 | W 22 G 33 | 16.09 | Fair | CLR | 21.1 | -6.1 | 16% | 75.57 | 1007.5 | |||||||
| 08 | 10:49 | W 20 G 44 | 16.09 | Fair | CLR | 20 | -5 | 18% | 75.62 | 1007.9 | |||||||
| 08 | 09:49 | W 20 | 16.09 | Fair | CLR | 17.2 | -5 | 22% | 75.67 | 1008.6 | |||||||
| 08 | 08:49 | SW 13 | 16.09 | Partly Cloudy | SCT110 | 13.3 | -2.2 | 34% | 75.69 | 1009.0 | |||||||
| 08 | 07:49 | S 9 | 16.09 | Fair | CLR | 9.4 | -2.8 | 43% | 8 | 75.69 | 1009.2 | ||||||
| 08 | 06:49 | S 9 | 16.09 | Fair | CLR | 4.4 | -3.9 | 6.1 | 3.3 | 55% | 2 | 75.69 | 1009.4 | ||||
| 08 | 05:49 | S 9 | 16.09 | Partly Cloudy | SCT120 | 5 | -4.4 | 51% | 3 | 75.67 | 1009.1 | ||||||
| 08 | 04:49 | S 13 | 16.09 | Fair | CLR | 3.3 | -5 | 55% | 0 | 75.69 | 1009.4 | ||||||
| 08 | 03:49 | S 9 | 16.09 | Fair | CLR | 5 | -5 | 49% | 3 | 75.69 | 1009.4 | ||||||
| 08 | 02:49 | Calm | 16.09 | Fair | CLR | 4.4 | -5 | 51% | 75.72 | 1009.8 | |||||||
| 08 | 01:49 | S 7 | 16.09 | Fair | CLR | 4.4 | -6.1 | 47% | 3 | 75.74 | 1010.2 | ||||||
| 08 | 00:49 | E 9 | 16.09 | Fair | CLR | 6.7 | -6.1 | 17.2 | 4.4 | 40% | 5 | 75.77 | 1010.3 | ||||
| 07 | 23:49 | Calm | 16.09 | Fair | CLR | 5 | -6.1 | 45% | 75.79 | 1010.8 | |||||||
| 07 | 22:49 | NE 11 | 16.09 | Fair | CLR | 7.8 | -5.6 | 38% | 6 | 75.77 | 1010.6 | ||||||
| 07 | 21:49 | NW 6 | 16.09 | Fair | CLR | 10 | -7.2 | 29% | 75.77 | 1010.4 | |||||||
| 07 | 20:49 | N 7 | 16.09 | Fair | CLR | 13.3 | -6.7 | 24% | 75.72 | 1009.8 | |||||||
| 07 | 19:49 | W 15 | 16.09 | Fair | CLR | 16.1 | -7.2 | 20% | 75.69 | 1009.2 | |||||||
| 07 | 18:49 | W 7 | 16.09 | Fair | CLR | 16.7 | -6.7 | 17.8 | 14.4 | 20% | 75.69 | 1009.3 | |||||
| 07 | 17:49 | W 15 | 16.09 | Fair | CLR | 17.2 | -6.7 | 19% | 75.69 | 1009.7 | |||||||
| 07 | 16:49 | NW 24 G 37 | 16.09 | Fair | CLR | 17.2 | -5.6 | 21% | 75.74 | 1010.1 | |||||||
| 07 | 15:49 | Calm | 16.09 | A Few Clouds | FEW085 | 16.1 | -4.4 | 24% | 75.77 | 1010.4 | |||||||
| 07 | 12:49 | W 13 | 16.09 | Fair | CLR | 14.4 | -3.9 | 14.4 | 2.8 | 28% | 75.84 | 1011.7 | |||||
| 07 | 11:49 | N 7 | 16.09 | Fair | CLR | 13.3 | -2.8 | 33% | 75.87 | 1012.1 | |||||||
| 07 | 10:49 | N 15 G 26 | 16.09 | Fair | CLR | 12.2 | -2.8 | 35% | 75.9 | 1012.3 | |||||||
| 07 | 09:49 | NE 20 | 16.09 | Fair | CLR | 10.6 | -3.3 | 38% | 75.9 | 1012.3 | |||||||
| 07 | 07:49 | NE 15 | 16.09 | Partly Cloudy | SCT100 | 6.1 | -2.8 | 53% | 3 | 75.9 | 1012.4 | ||||||
| 07 | 05:49 | N 24 | 16.09 | Mostly Cloudy | BKN085 BKN110 | 0.6 | -3.9 | 72% | -5 | 75.92 | 1012.8 | ||||||
| 07 | 04:49 | NE 15 | 16.09 | Fair | CLR | 0 | -5.6 | 66% | -4 | 75.9 | 1012.5 | ||||||
| 07 | 03:49 | SE 9 | 16.09 | Fair | CLR | 1.7 | -5 | 61% | -1 | 75.92 | 1012.8 | ||||||
| 07 | 02:49 | SE 9 | 16.09 | Mostly Cloudy | BKN090 | 1.7 | -5 | 61% | -1 | 75.97 | 1013.6 | ||||||
| 07 | 01:49 | NE 7 | 16.09 | Overcast | FEW090 OVC120 | 2.8 | -5 | 57% | 1 | 76.05 | 1014.6 | ||||||
| 07 | 00:49 | NE 9 | 16.09 | Overcast | OVC110 | 2.2 | -5 | 11.1 | 1.1 | 59% | -0 | 76.07 | 1015.1 | ||||
| 06 | 23:49 | SE 13 | 16.09 | A Few Clouds | FEW100 | 1.7 | -6.1 | 57% | -2 | 76.05 | 1014.9 | ||||||
| 06 | 22:49 | E 13 | 16.09 | A Few Clouds | FEW100 | 3.9 | -5.6 | 50% | 1 | 76.1 | 1015.4 | ||||||
| 06 | 21:49 | E 11 | 16.09 | Mostly Cloudy | BKN100 | 5 | -6.1 | 45% | 3 | 76.12 | 1015.6 | ||||||
| 06 | 20:49 | N 7 | 16.09 | Overcast | OVC095 | 7.8 | -5.6 | 38% | 7 | 76.1 | 1015.4 | ||||||
| Date | Time (cdt) | Wind (kph) | Vis. (km) | Weather | Sky Cond. | Air | Dwpt | Max. | Min. | Relative Humidity | Wind Chill (°C) | Heat Index (°C) | altimeter (cm) | sea level (mb) | 1 hr | 3 hr | 6 hr |
| 6 hour | |||||||||||||||||
| Temperature (ºC) | Pressure | Precipitation (cm) | |||||||||||||||